Theta_e
311 311 311 311 311 310 310 310 310 310 310 310 310 311 311 312 313 314 315 316 315 315 315 316 317 317 316 315 315 315 315 314 314 314 314 315 315 315 315 317 318 317 318 318 317 316 316 316 316 316 317 318 320 322 321 318 319 320 322 321 320 321 322 322 321 321 320 320 319 317 316 317 317 315 314 314 314 314 315 315 314 314 314 313 314 313 312 313
311 311 311 311 311 310 310 310 310 310 310 310 310 310 310 310 311 312 313 314 315 315 315 315 315 317 317 316 315 315 315 314 315 315 316 315 314 315 316 317 317 318 318 318 318 318 317 317 317 316 317 320 320 322 322 320 318 321 322 321 321 322 322 321 320 320 319 319 319 318 317 317 317 316 314 314 315 315 315 315 314 314 313 313 314 313 312 312
311 311 311 311 310 310 310 310 310 310 310 310 310 310 310 310 310 310 311 312 313 314 314 314 314 315 317 317 316 315 315 315 315 316 316 315 315 315 315 317 318 318 318 318 319 318 318 318 317 316 317 320 321 321 322 321 319 320 321 321 322 322 321 320 319 319 318 318 318 318 317 316 317 316 314 314 316 316 315 316 315 315 314 313 313 313 312 312
311 311 311 311 310 310 310 310 310 310 310 310 310 310 310 310 310 310 310 310 311 312 312 313 314 314 315 317 317 316 316 316 318 318 317 316 315 315 315 316 318 318 318 318 318 319 320 319 317 317 319 320 321 320 320 320 320 321 320 320 321 320 319 320 318 317 317 317 317 318 317 316 317 316 314 315 316 316 317 317 316 316 315 315 313 313 313 312
310 311 310 311 311 310 310 310 310 310 310 310 310 310 310 310 310 310 310 310 310 310 311 311 312 313 314 316 317 317 316 318 321 319 317 316 315 315 316 316 318 318 318 317 318 319 319 319 317 317 319 320 321 320 320 320 319 319 319 320 321 319 318 318 317 316 316 315 316 317 316 316 316 315 314 315 316 317 318 318 317 317 317 316 314 314 313 312
310 311 311 311 311 311 311 310 310 310 310 310 310 310 310 310 310 310 310 310 310 310 310 310 311 311 313 315 317 317 317 320 320 318 317 316 315 315 316 316 317 317 318 318 317 318 318 318 317 317 319 319 320 320 320 319 317 318 320 320 319 318 318 318 316 315 314 314 315 316 316 316 315 315 315 315 316 317 318 317 317 317 316 316 315 315 313 312
310 311 311 311 311 311 311 311 311 311 311 310 310 310 310 310 310 310 310 310 310 310 310 310 310 310 312 314 315 317 318 320 318 317 317 316 315 314 315 316 316 316 317 318 317 317 318 319 319 319 319 319 320 320 319 317 316 317 319 320 319 317 317 317 315 314 313 314 315 315 315 315 315 316 316 316 316 316 316 316 316 316 315 315 314 314 314 313
311 311 311 311 311 312 312 312 311 311 311 311 311 311 311 311 311 310 310 311 310 311 310 310 310 310 311 312 315 318 320 319 316 317 317 316 316 315 314 315 316 316 316 317 317 317 318 319 320 319 319 320 319 319 318 317 317 317 318 319 318 316 316 316 315 313 313 314 314 313 313 315 315 315 315 315 315 316 316 315 315 315 314 313 313 313 313 312
311 311 311 311 311 312 312 312 312 312 312 312 312 312 312 312 312 311 312 311 311 311 311 311 310 310 310 311 315 318 320 318 316 316 316 317 317 316 315 314 315 315 315 316 316 317 317 319 320 319 319 320 318 318 317 317 317 317 317 318 317 317 316 316 315 314 314 314 313 313 314 315 315 314 314 315 315 315 315 315 314 314 313 313 312 312 312 312
311 311 311 311 312 312 312 312 313 313 313 313 313 312 313 313 313 313 313 313 313 312 312 312 311 311 310 312 316 318 317 317 315 315 316 317 317 317 317 315 314 315 315 315 315 316 317 318 319 318 319 319 318 318 317 317 316 315 316 316 316 316 316 315 315 315 314 314 313 313 314 315 314 313 315 316 316 315 316 315 314 313 313 312 312 311 311 311
311 311 311 311 312 312 312 313 313 313 313 313 313 313 313 314 314 314 314 313 313 313 313 312 312 311 310 312 317 318 316 315 314 314 315 316 317 317 317 315 313 314 314 314 315 315 316 317 317 317 319 318 317 317 316 316 315 314 314 315 316 316 316 315 315 315 314 314 314 313 313 315 314 312 315 316 316 315 315 315 314 313 313 312 312 311 311 311
311 311 311 311 311 311 312 312 313 313 313 313 314 314 314 314 314 314 314 314 313 313 313 313 312 311 311 314 317 316 315 314 313 314 314 315 316 317 316 315 313 313 314 314 315 315 315 316 316 317 318 317 318 318 316 314 314 314 313 314 316 317 317 316 316 315 314 314 313 313 313 314 314 314 315 316 315 314 314 314 313 313 313 313 312 311 311 311
311 311 311 311 311 311 312 312 312 313 313 314 314 314 314 314 314 315 314 314 314 313 313 312 312 311 312 316 317 315 314 313 313 314 314 315 315 316 316 316 314 313 313 314 314 314 315 315 316 317 317 317 318 317 315 313 313 314 314 314 315 317 317 318 317 314 313 314 313 313 314 315 316 316 317 317 315 314 313 313 313 313 312 312 312 311 311 312
312 312 312 312 312 312 312 312 313 313 314 315 315 314 314 314 314 314 314 315 314 314 313 312 312 311 313 316 316 314 314 313 313 313 314 315 315 316 316 316 316 314 313 314 314 314 314 315 315 316 316 316 316 315 315 315 313 314 316 315 315 316 317 317 316 313 313 313 312 313 313 315 316 317 318 317 315 314 314 314 314 313 313 312 312 312 311 312
313 313 313 313 313 314 313 314 314 314 314 315 315 315 314 314 314 314 314 314 314 314 313 312 312 312 315 317 315 314 314 313 313 313 313 314 315 316 316 316 316 315 313 313 314 314 314 314 315 316 315 315 315 315 316 317 316 316 316 316 317 317 317 318 315 314 315 313 312 314 314 315 317 318 318 317 316 314 314 315 315 315 314 313 313 312 312 312
314 315 315 315 315 315 314 314 314 314 315 315 315 315 314 314 314 314 314 314 314 314 313 313 312 312 315 316 315 315 315 315 314 314 314 314 315 316 315 315 315 314 313 313 313 314 314 314 315 315 315 314 315 316 317 318 318 318 317 316 318 317 318 318 315 314 315 313 312 313 314 315 316 317 316 316 316 314 314 315 315 315 315 314 313 312 313 312
311 312 313 314 314 315 315 315 315 315 315 315 315 315 314 314 314 314 314 314 314 313 312 313 313 313 314 316 316 315 315 315 315 314 315 315 315 315 315 314 313 313 313 313 313 314 314 315 315 315 315 315 316 317 317 316 316 318 318 317 318 317 317 316 315 314 314 314 313 313 314 315 315 316 316 315 315 314 315 315 315 315 315 315 313 312 312 312
308 308 309 310 310 311 312 313 314 314 315 315 315 315 315 315 314 314 314 313 313 312 312 313 314 314 315 316 316 316 315 315 315 315 315 316 315 315 314 312 313 313 313 313 314 314 315 316 316 315 316 316 316 316 316 316 316 316 316 316 317 317 316 317 317 314 313 313 314 314 314 315 315 316 316 316 315 314 315 315 315 315 315 315 314 313 312 311
310 310 310 309 309 309 308 309 310 311 312 313 313 313 313 313 313 313 313 312 313 314 315 316 316 315 316 316 314 314 314 314 314 315 315 315 315 314 313 312 313 313 314 315 315 315 316 317 317 317 317 318 317 317 317 318 318 316 317 317 316 316 315 317 317 313 313 313 313 314 314 314 315 315 316 316 316 315 315 315 315 315 314 314 314 314 313 311
312 312 312 311 311 310 310 309 309 309 310 310 310 310 311 313 314 314 314 312 313 314 315 316 316 316 317 316 315 314 313 313 314 314 314 314 314 313 312 312 314 314 314 316 316 316 316 316 318 318 318 318 318 318 318 318 318 317 317 317 316 316 315 318 317 311 312 313 314 315 314 315 315 315 315 316 316 315 315 315 315 315 315 315 315 315 314 312
312 312 312 312 312 312 311 311 311 310 310 310 310 309 310 312 313 314 312 311 312 313 313 314 314 314 315 315 314 313 313 314 314 313 314 314 313 313 313 313 314 314 315 317 317 316 316 316 317 318 318 318 318 319 318 318 317 317 316 315 316 316 316 319 316 311 310 312 313 315 314 315 315 315 315 315 315 315 315 315 315 316 315 315 315 315 315 313
312 312 312 312 312 312 312 312 312 311 310 310 310 309 309 309 310 310 309 310 312 312 312 312 312 312 312 312 313 312 312 313 313 313 313 313 313 313 314 314 314 315 316 316 317 316 316 316 317 317 318 317 317 317 317 317 316 316 316 316 316 317 318 318 315 310 309 311 313 314 314 314 315 314 315 315 315 315 315 315 315 316 316 316 316 316 316 313
312 312 312 312 312 312 312 312 312 311 311 310 309 309 308 308 309 308 309 310 312 312 311 311 311 311 311 312 312 311 311 313 313 314 313 313 312 313 314 315 313 315 317 316 316 316 317 317 316 318 317 316 316 315 315 315 315 316 316 316 316 317 319 318 314 311 310 311 312 313 313 313 314 314 314 315 315 315 316 316 316 316 316 316 316 316 316 313
310 310 311 311 311 312 312 312 311 312 311 310 310 309 308 308 308 308 310 312 312 313 312 311 311 311 311 311 312 311 312 312 313 314 313 312 313 313 314 315 314 314 316 316 316 316 317 317 316 316 316 316 316 315 314 315 315 316 317 317 317 318 318 318 316 313 313 313 311 312 313 314 315 316 316 316 316 315 316 315 315 315 315 315 314 315 316 313
310 309 310 310 311 312 312 311 311 311 310 310 310 309 308 308 308 309 310 312 313 314 313 311 311 311 311 311 311 312 312 312 312 313 313 312 313 313 313 315 314 313 315 315 315 315 316 316 315 315 315 316 316 315 316 316 315 316 318 318 317 317 318 318 318 316 315 316 312 312 315 315 316 317 317 316 315 314 315 314 314 314 314 314 314 315 315 313
311 310 309 309 309 310 311 312 311 310 310 310 310 310 309 309 310 311 311 313 314 314 313 313 312 312 312 312 311 312 312 312 312 312 312 312 312 313 313 314 314 313 315 316 315 316 316 314 313 315 317 316 316 315 316 317 315 315 318 319 318 318 318 318 318 316 316 316 313 313 315 316 316 316 317 316 315 314 316 316 316 314 314 314 314 314 315 313
313 312 310 309 309 309 311 312 310 309 310 311 311 311 311 311 312 312 311 312 314 315 315 313 313 314 314 313 312 312 312 312 312 311 311 311 312 312 312 313 314 313 314 316 315 316 316 314 313 315 316 317 316 316 317 317 316 317 317 317 316 317 317 317 317 316 315 316 315 313 314 316 315 315 316 315 314 314 315 316 317 315 315 315 315 315 315 313
315 314 313 311 310 309 311 311 310 308 309 310 310 310 310 310 311 311 310 312 315 317 316 313 313 313 313 312 312 312 311 311 313 312 310 311 312 312 312 313 314 313 314 315 315 316 317 316 315 315 315 316 317 316 318 317 317 316 314 314 314 315 316 316 315 315 315 315 315 315 315 315 316 316 316 315 314 314 314 314 315 315 316 316 316 317 315 314
317 316 315 314 313 312 312 311 311 308 308 309 310 309 310 310 309 310 311 314 316 315 314 313 312 312 312 312 311 311 310 310 312 311 309 311 311 311 311 312 313 314 314 313 315 317 315 312 313 315 316 317 315 312 315 318 317 313 311 312 313 313 313 314 314 314 314 315 316 316 315 315 317 316 315 315 314 314 315 314 315 316 316 317 317 317 315 313
319 318 318 317 316 315 314 313 311 309 308 309 310 309 310 310 310 311 313 315 315 314 313 312 313 314 313 313 312 312 310 310 309 308 309 310 310 310 310 311 312 313 314 313 315 316 311 307 309 313 315 314 311 307 309 313 313 311 312 313 313 313 312 312 313 312 314 317 317 317 315 315 316 316 315 315 314 314 316 315 315 317 316 318 318 317 315 313
320 320 319 319 318 317 316 315 313 310 308 309 311 310 310 311 310 313 315 314 314 315 313 312 313 314 314 314 315 313 311 311 309 309 310 309 310 310 310 312 312 312 314 314 314 315 312 309 310 312 312 311 310 309 308 308 310 312 314 313 315 315 313 313 313 312 315 318 317 317 317 316 316 315 314 315 315 315 316 315 316 316 316 318 318 315 314 313
321 321 320 320 320 319 318 317 315 310 308 310 311 309 310 312 312 313 313 312 314 316 315 315 315 315 314 316 318 315 313 314 311 310 311 311 311 311 311 313 314 314 315 315 316 317 316 315 314 312 310 310 313 313 309 307 309 312 313 313 315 316 315 316 316 315 317 318 315 315 317 318 316 315 314 315 315 315 315 315 315 316 316 317 317 316 313 312
321 321 322 321 321 321 320 318 316 311 308 310 311 309 310 312 314 316 314 314 317 316 316 317 316 315 316 316 317 316 315 315 312 310 312 312 312 312 312 313 315 317 317 316 317 318 318 317 315 314 311 310 312 314 313 311 309 311 313 314 316 317 318 320 319 317 318 317 314 312 315 316 314 314 315 315 314 315 315 315 316 316 315 316 318 317 314 312
321 321 322 322 322 322 321 319 317 312 308 309 310 309 311 312 315 317 316 316 317 315 315 316 316 315 316 317 317 316 316 316 313 311 312 313 312 313 314 313 314 317 317 316 316 317 318 317 316 316 315 312 312 314 316 315 311 311 313 315 316 317 317 318 317 317 318 317 314 311 312 313 312 313 316 315 315 316 315 315 316 315 315 315 316 316 313 313
321 322 323 323 321 322 322 320 318 313 307 309 311 310 310 312 313 314 315 316 315 314 314 313 315 317 316 317 316 316 316 317 315 312 312 314 314 314 315 314 314 315 315 315 316 316 316 318 318 315 313 312 312 315 316 316 314 312 313 314 316 316 316 316 316 316 314 314 314 312 312 312 312 314 315 315 315 315 315 315 315 315 314 314 313 313 313 312
323 323 323 322 320 321 322 320 320 314 308 309 311 310 310 312 313 313 313 314 314 315 314 313 316 318 316 317 317 316 316 316 315 314 314 314 314 315 316 316 315 314 315 316 317 316 315 317 318 312 310 309 308 311 314 314 315 314 313 314 315 315 316 317 318 316 313 314 315 314 313 313 313 314 314 314 315 314 314 314 315 314 314 314 313 312 312 312
324 323 322 321 320 321 321 319 319 314 309 310 311 310 311 312 313 313 313 312 313 315 314 313 315 316 315 316 317 317 316 315 314 314 315 315 315 316 316 316 316 315 315 315 317 318 316 316 316 312 311 307 303 307 311 310 312 313 313 314 314 313 314 314 316 316 315 316 316 315 315 313 313 314 314 313 313 313 313 313 314 314 315 315 314 312 311 312
323 321 320 321 321 321 320 318 317 312 308 310 311 312 313 312 312 313 311 311 312 314 314 312 314 316 315 314 316 318 315 315 315 313 314 316 316 317 316 315 316 315 315 314 316 320 317 317 316 310 309 307 303 307 311 308 308 309 310 312 312 313 314 314 315 315 315 316 316 314 314 313 313 314 313 312 313 313 313 313 313 314 314 315 314 313 312 311
321 319 318 320 321 321 320 318 314 310 308 310 311 313 313 312 312 312 310 310 311 312 312 311 312 314 315 314 315 318 315 315 316 314 314 316 316 317 316 316 317 315 314 314 315 317 316 316 316 308 305 308 306 308 312 311 308 306 307 310 310 311 313 313 314 314 314 315 314 314 315 314 315 315 314 313 313 313 313 313 313 313 313 314 313 312 312 312
320 317 317 319 319 318 319 316 312 309 309 310 311 312 312 312 313 311 309 310 311 311 311 311 312 312 313 315 315 316 316 316 317 315 315 316 316 317 316 316 317 316 314 314 314 316 315 315 316 308 303 308 309 309 312 313 311 308 308 310 310 310 310 311 313 313 313 314 314 314 315 314 314 315 316 314 313 314 314 314 315 314 313 313 312 312 312 312
318 317 316 317 317 317 317 313 309 308 309 310 311 312 312 312 313 312 310 309 310 310 309 310 311 311 312 314 313 314 315 316 317 316 316 315 314 315 315 315 317 316 314 314 314 315 314 314 315 312 308 310 312 312 313 313 314 312 310 311 311 311 311 312 314 314 313 313 314 314 314 314 314 314 314 313 313 314 314 314 315 315 314 313 312 312 311 312
317 317 317 316 316 316 315 311 309 309 308 309 311 312 312 312 312 312 312 309 309 309 309 309 310 310 311 312 312 313 314 314 315 316 316 316 315 314 315 316 316 315 314 314 313 313 315 315 315 315 315 315 313 311 310 311 312 312 312 312 313 312 312 314 315 315 313 312 313 314 314 315 314 314 313 312 312 312 313 313 314 315 314 312 311 311 311 311
316 316 316 315 315 316 314 311 310 309 308 309 311 311 312 312 312 312 312 310 309 309 309 309 309 309 310 310 310 311 312 312 313 314 315 315 315 315 315 315 315 313 313 314 313 312 314 315 314 314 315 316 313 308 305 306 308 310 311 312 313 313 313 314 314 313 314 313 313 313 314 315 315 315 314 313 313 312 312 312 312 313 313 312 311 311 310 310
316 315 314 313 313 315 314 313 311 309 308 309 310 310 312 312 312 312 312 311 310 310 309 310 309 309 309 310 309 310 310 310 311 312 312 313 313 313 313 313 314 313 313 314 313 312 313 314 314 314 314 315 314 310 308 306 307 309 311 311 313 314 314 314 313 311 313 314 314 314 314 314 315 316 315 314 314 312 311 311 312 312 312 312 311 310 310 310
315 314 312 311 313 313 314 314 313 311 309 308 309 311 312 312 312 312 312 312 311 310 309 309 309 308 309 309 309 309 309 309 310 310 311 311 311 310 309 311 313 313 312 312 311 312 314 314 313 314 314 314 314 314 313 310 307 308 310 311 312 313 313 313 313 312 313 314 314 314 314 313 313 314 314 313 313 311 310 311 311 310 311 312 311 310 309 310
314 315 312 310 311 311 312 313 314 313 312 310 310 311 311 312 312 312 312 313 312 311 310 309 308 308 309 309 309 308 309 309 310 310 310 310 311 309 306 306 308 310 309 308 308 311 315 315 313 313 313 313 314 314 314 313 310 309 310 310 311 313 313 313 313 313 313 313 313 314 314 314 313 313 313 313 313 312 312 312 311 309 310 311 311 310 310 309
312 315 313 310 310 310 310 311 312 313 313 312 311 312 312 312 312 313 312 312 313 312 311 310 309 309 311 310 310 310 310 311 311 310 310 310 310 310 307 304 306 307 307 306 306 310 313 313 312 313 312 312 312 312 313 313 312 311 312 311 311 312 313 314 313 313 313 313 313 314 314 314 314 313 312 313 313 313 313 312 312 311 310 309 309 309 309 309
310 313 314 312 312 311 310 310 310 311 312 313 312 313 313 313 313 313 313 313 313 313 312 312 310 310 311 311 312 313 312 312 311 310 311 310 310 310 308 307 307 307 307 307 306 308 311 311 312 313 312 311 312 311 312 312 312 312 313 313 312 312 313 313 313 313 313 313 313 313 314 314 313 312 312 313 312 313 312 312 312 312 312 311 309 309 308 309
309 311 312 312 313 313 311 310 310 310 311 312 313 312 313 314 313 314 314 313 313 312 313 313 312 310 310 310 312 313 313 314 314 313 311 310 311 310 310 311 309 306 306 309 308 308 309 310 312 312 312 312 312 311 312 312 311 311 312 313 313 312 312 312 312 312 313 313 313 313 313 314 313 312 312 312 312 312 312 311 312 312 312 311 310 310 309 309
308 309 309 309 310 310 310 310 310 310 310 311 312 312 312 313 313 313 314 314 314 313 312 313 314 313 312 311 311 312 312 313 315 315 314 312 312 311 311 312 311 306 305 308 308 308 309 310 311 311 311 311 311 311 311 311 311 311 311 312 312 312 312 312 312 312 312 312 312 313 313 313 312 312 312 312 312 312 311 311 312 312 311 311 311 310 310 310
303 304 304 304 305 307 308 309 309 310 310 311 311 311 312 312 313 313 314 314 315 314 313 313 313 313 314 313 312 311 311 312 313 314 315 314 314 313 311 312 312 309 306 306 307 308 308 309 310 310 311 311 312 312 311 311 311 312 311 311 311 311 311 312 312 312 312 312 312 313 313 312 311 312 312 312 311 311 311 311 311 311 311 310 310 310 310 310
300 300 301 301 302 305 308 308 308 309 310 310 310 310 311 311 312 312 314 314 314 315 314 314 313 313 314 314 313 313 312 312 312 312 313 314 313 312 311 310 311 310 308 307 307 308 308 308 309 310 311 311 311 312 311 311 312 312 312 311 311 311 311 311 311 312 312 312 312 312 312 311 311 311 311 311 310 310 311 311 311 311 310 310 310 310 310 310
Wind_Speed
3 4 4 5 5 6 6 6 7 7 7 7 8 8 8 8 8 7 7 8 9 8 7 6 5 6 7 7 7 7 7 8 8 9 10 9 9 9 7 6 4 2 1 0 1 2 3 5 6 7 6 6 7 6 7 5 5 5 4 5 5 6 4 1 4 4 3 5 1 7 9 10 7 8 10 11 12 14 13 14 13 14 18 21 23 17 14 18
4 4 4 4 5 5 6 6 7 7 7 7 8 8 8 8 8 7 7 7 7 8 8 8 6 6 7 8 8 8 9 9 10 12 14 11 9 9 8 7 5 3 1 0 0 1 4 6 7 8 8 8 8 7 7 5 5 6 4 5 6 6 2 2 5 5 4 7 3 4 8 10 7 6 9 9 11 15 16 15 15 16 18 23 29 24 21 23
4 4 5 5 5 6 6 6 7 7 8 8 8 8 9 9 8 8 8 7 7 7 7 8 8 7 6 7 9 9 10 11 14 17 16 14 12 10 9 8 6 4 2 1 1 1 4 5 6 9 9 9 7 6 6 6 6 7 5 6 5 3 3 3 5 6 6 6 5 5 6 9 9 5 8 8 12 15 16 17 15 19 22 23 29 29 27 27
5 5 5 5 5 6 6 7 7 7 8 8 9 9 9 10 10 9 9 8 7 7 7 7 7 8 7 6 8 9 10 11 14 18 17 14 14 12 10 10 8 5 4 2 2 2 3 4 6 8 8 9 7 6 7 8 6 3 5 7 4 3 5 5 3 5 4 4 7 6 4 8 9 7 9 9 10 12 16 19 19 22 24 22 26 29 30 30
6 6 5 5 5 5 6 6 7 7 7 8 8 9 9 10 10 10 10 9 9 8 7 7 7 7 7 7 6 7 7 6 6 10 12 13 14 12 11 11 9 8 5 4 3 3 4 3 4 6 8 8 6 6 8 9 6 3 8 11 7 4 6 3 1 3 3 3 7 8 6 7 7 9 14 13 12 12 10 12 16 20 19 17 23 26 27 29
8 7 6 6 6 6 6 6 6 7 7 7 8 9 9 10 10 11 11 11 10 10 9 8 8 7 7 7 6 6 7 4 2 3 6 11 13 12 11 12 11 10 7 6 4 4 4 3 5 7 8 8 7 7 5 7 8 6 9 10 8 7 7 3 0 4 4 5 8 8 8 6 6 11 15 19 22 20 12 11 12 13 14 14 19 23 24 27
10 9 8 8 7 7 7 7 7 7 7 7 8 9 9 9 10 11 11 11 11 11 11 10 9 8 7 7 6 6 10 12 11 8 7 9 12 13 13 12 12 11 9 7 5 4 5 5 8 7 8 8 7 8 4 5 8 7 8 8 7 6 9 7 3 6 5 7 9 7 6 8 12 12 12 20 27 25 20 20 20 18 16 16 18 23 25 26
12 11 10 10 9 9 9 9 8 8 8 7 8 8 9 9 9 10 11 11 11 12 12 11 11 10 8 7 7 7 12 17 16 14 13 13 14 14 15 14 13 12 10 8 6 6 7 8 8 5 7 6 3 5 3 4 9 11 9 8 5 5 9 9 6 8 7 8 9 8 10 13 16 12 12 22 27 24 22 23 26 27 24 21 22 24 25 26
14 13 13 12 12 11 11 11 10 10 9 9 9 9 10 9 9 10 10 11 11 12 12 12 13 11 9 7 6 7 12 14 13 12 13 14 16 16 17 15 14 12 10 9 7 7 7 7 6 4 7 6 5 4 3 4 6 7 8 8 7 8 9 9 9 11 9 9 7 8 13 15 14 10 15 28 30 27 23 21 23 27 27 25 25 26 26 27
16 16 15 14 14 14 13 13 12 12 11 11 11 11 11 11 11 11 11 12 12 13 13 14 14 11 10 8 6 6 9 11 10 10 11 13 15 16 17 16 15 12 9 10 9 8 7 7 7 6 9 7 6 5 3 4 3 3 8 10 11 13 12 10 12 12 9 9 10 11 13 13 9 6 13 19 18 18 18 19 20 21 24 25 26 26 28 29
19 18 18 17 16 16 15 15 14 14 13 13 13 13 14 14 14 13 13 14 14 15 15 15 14 11 10 8 9 9 11 12 12 12 11 12 13 14 16 16 15 13 10 10 10 9 9 9 9 8 7 3 4 5 5 7 6 6 8 11 14 16 15 14 14 13 10 7 11 11 11 13 8 7 20 20 11 11 13 16 18 20 21 21 24 25 27 30
21 21 20 20 19 18 18 17 17 16 15 15 14 15 16 16 16 16 16 16 16 16 16 16 14 10 9 9 14 15 15 15 14 14 14 13 13 14 15 15 15 14 11 9 10 11 10 9 8 8 6 4 5 4 4 6 6 7 6 10 14 13 14 17 15 12 11 6 8 6 8 14 12 16 32 29 18 16 12 14 17 20 22 21 23 24 27 30
23 23 23 22 21 21 20 20 19 19 18 17 16 16 16 18 18 18 18 18 18 18 18 17 15 11 8 10 16 17 16 16 15 15 16 14 14 14 14 15 15 15 14 11 12 11 10 10 8 8 8 7 7 5 4 4 4 7 7 7 10 11 11 12 11 9 9 7 8 6 7 10 13 23 31 21 19 19 14 16 18 19 22 23 23 25 28 30
25 25 25 25 24 23 23 23 22 22 21 20 19 18 18 18 19 19 19 19 19 19 19 18 15 10 8 13 17 19 18 17 17 17 17 15 15 15 14 15 15 15 14 13 12 11 11 10 8 9 9 8 7 6 7 5 5 6 5 5 6 9 6 6 10 10 9 7 9 8 8 10 10 16 20 16 18 17 15 16 18 19 21 24 26 27 30 31
27 27 27 27 27 26 26 25 25 25 25 23 22 21 20 20 20 20 19 20 19 19 19 18 14 9 9 15 19 19 18 17 19 19 17 15 15 14 14 14 14 13 13 13 12 11 10 9 8 7 5 5 6 6 8 7 6 6 5 6 7 7 6 6 11 12 8 4 11 10 6 10 13 6 10 17 16 14 15 16 16 19 21 24 29 30 31 32
29 29 29 30 29 29 28 28 28 28 28 27 25 24 23 23 22 22 22 21 20 20 18 16 14 9 8 13 17 18 18 18 18 17 14 14 13 13 13 12 12 12 12 11 11 10 9 7 7 8 4 4 6 6 7 7 7 7 7 8 8 8 9 5 7 10 8 4 11 13 7 9 9 1 10 15 15 14 14 15 17 21 22 23 27 31 34 34
29 30 30 31 31 31 31 30 30 30 30 29 28 27 26 26 25 25 24 23 21 20 17 13 11 9 10 15 16 17 19 19 17 14 13 12 12 13 11 10 11 11 10 9 9 8 8 6 5 6 7 6 6 5 5 7 7 6 6 7 10 11 11 7 3 6 8 6 9 13 11 14 13 10 10 13 15 15 16 20 22 25 27 25 24 28 33 36
26 27 28 29 30 31 31 32 32 32 32 31 30 30 29 29 29 28 27 25 20 15 13 11 7 4 9 15 14 13 15 16 14 14 12 11 12 12 12 11 10 8 8 7 8 8 8 6 4 4 6 7 7 7 6 8 9 9 9 8 10 11 11 12 6 5 11 9 10 12 13 18 18 18 20 19 17 17 19 23 26 29 30 27 24 26 30 35
24 24 25 26 27 27 28 29 30 31 32 31 31 30 31 29 27 26 24 20 13 8 7 8 11 5 5 9 12 13 14 14 12 13 13 12 12 12 13 11 9 9 8 5 7 10 8 5 5 5 8 9 10 12 12 13 13 14 13 9 11 12 12 16 8 6 9 8 9 14 15 18 19 17 19 23 21 19 22 23 26 30 29 26 26 28 28 32
24 24 24 24 25 25 25 26 27 27 28 28 27 26 23 18 14 13 12 14 17 15 13 11 13 13 13 13 15 15 15 16 15 15 14 12 11 11 12 10 8 9 9 7 6 7 6 6 7 10 12 13 13 15 16 16 14 13 12 10 13 13 13 17 8 5 6 5 9 14 16 18 20 18 18 22 23 21 23 24 26 29 26 23 25 29 28 28
23 23 24 24 25 25 25 25 25 25 24 24 23 18 13 9 8 7 7 13 20 21 22 20 19 21 22 21 21 23 19 16 17 18 16 13 11 9 11 12 8 7 11 11 5 4 5 7 11 17 17 14 10 9 11 14 13 12 11 11 12 11 14 16 5 6 6 4 9 13 16 18 19 17 18 21 21 19 22 25 27 28 26 24 24 27 25 21
22 22 22 24 25 24 24 24 24 24 23 22 21 15 12 13 13 13 11 12 17 21 22 24 26 28 29 28 29 30 23 15 16 20 19 15 15 12 10 13 10 8 8 9 4 3 6 10 18 21 12 5 4 4 8 13 13 12 9 8 10 10 12 11 2 6 5 4 7 11 13 16 18 19 19 21 21 21 26 29 29 28 24 23 24 23 19 18
21 21 21 23 23 23 23 23 22 23 22 21 19 15 14 14 13 14 11 9 14 21 24 25 27 28 29 30 31 29 22 18 16 19 23 19 18 16 13 11 12 10 8 10 10 7 8 10 14 14 6 4 7 6 7 10 9 9 8 7 10 10 9 7 2 4 6 7 7 11 12 13 16 18 19 24 27 25 27 28 28 29 25 24 27 20 14 19
20 20 20 21 21 21 21 22 21 22 21 19 18 16 14 12 11 10 9 8 10 14 22 26 25 26 28 27 27 26 23 21 16 16 23 23 18 14 15 13 12 12 10 14 15 13 13 9 2 2 4 7 10 7 8 8 7 9 10 10 11 12 12 11 3 2 7 8 4 8 11 11 12 15 14 16 19 19 19 19 21 27 29 29 31 24 15 18
19 19 19 20 19 18 19 20 18 18 17 15 14 13 11 8 7 5 5 8 8 8 16 20 19 23 28 27 25 20 15 17 19 19 21 23 20 11 9 12 11 12 15 17 15 13 16 8 5 4 5 7 9 9 10 9 7 9 12 15 17 15 15 14 6 6 8 7 2 3 10 8 7 11 10 6 7 9 10 12 15 22 26 27 30 26 17 18
18 18 18 19 18 17 16 14 12 14 13 12 12 9 7 5 3 3 4 6 7 5 6 9 10 12 15 20 22 15 6 10 19 23 19 20 24 15 5 7 9 10 11 11 10 8 8 3 4 7 8 7 9 11 12 10 8 8 5 8 13 14 14 14 8 4 6 7 1 2 7 9 4 7 8 6 6 9 8 8 12 16 19 21 27 27 20 19
18 18 18 18 17 16 13 10 11 13 10 11 10 7 6 5 3 2 3 7 8 6 8 7 8 9 9 10 17 14 2 3 8 15 19 20 23 17 8 8 7 6 2 2 5 4 5 6 4 7 8 7 9 10 11 11 9 5 1 2 4 7 10 9 7 6 7 8 4 4 4 12 9 6 10 9 9 10 9 11 13 14 17 21 24 25 22 22
19 19 19 18 16 14 12 11 12 11 9 11 8 6 6 7 5 2 2 8 4 7 7 6 7 9 8 10 20 14 2 1 4 8 20 23 20 13 11 13 10 8 7 7 8 2 3 6 7 9 8 8 8 4 3 11 9 2 3 3 2 0 3 4 5 6 7 8 7 7 8 9 11 5 12 14 12 12 13 15 14 13 17 19 19 19 20 20
20 20 21 19 17 14 13 12 10 9 9 8 5 7 9 9 5 1 4 7 1 6 4 7 8 8 8 10 17 12 3 1 0 4 15 18 18 11 6 10 11 8 8 11 11 3 2 2 3 7 8 7 3 4 4 5 6 2 4 4 5 3 1 2 4 5 6 9 10 9 11 8 11 3 11 12 11 12 12 13 13 13 17 17 15 17 17 16
22 22 22 21 19 16 14 12 9 9 8 6 7 10 11 8 3 3 9 6 1 2 5 7 7 8 12 9 9 11 6 1 2 6 8 7 13 10 3 2 5 6 6 9 11 6 2 4 1 4 6 2 5 6 6 3 2 6 5 3 3 2 2 2 4 2 6 10 11 13 16 11 10 2 10 9 10 13 11 9 11 11 14 14 14 17 18 16
24 24 24 24 22 18 15 13 11 9 6 8 11 14 11 4 2 8 10 1 3 2 6 6 6 8 14 11 6 9 10 5 5 9 6 3 7 9 4 2 3 4 6 7 9 9 6 5 3 4 4 4 5 3 3 4 2 4 3 2 2 4 2 3 4 3 6 10 5 12 20 17 11 4 7 9 12 15 11 7 10 8 10 12 13 17 18 17
26 26 27 27 25 22 18 15 12 7 6 11 15 16 8 2 6 12 6 5 1 5 6 5 8 7 11 12 6 7 7 6 9 11 7 6 6 8 9 7 7 4 6 7 6 7 7 8 8 4 3 7 6 2 3 2 3 4 5 5 4 4 3 4 5 4 8 8 2 9 13 14 13 9 7 8 10 13 10 7 9 8 9 11 12 15 17 17
28 28 29 29 29 27 21 17 13 8 8 14 17 12 5 5 10 10 7 5 1 2 3 3 7 7 8 9 6 5 4 4 10 11 8 7 7 8 11 12 8 4 5 5 3 4 4 3 8 7 3 10 12 7 5 4 7 9 8 7 6 5 5 6 6 6 9 7 3 7 5 7 8 7 14 17 13 14 14 12 13 13 12 11 11 14 17 19
30 29 32 33 32 31 25 21 16 10 11 18 13 7 7 10 10 4 8 11 4 2 3 3 5 8 7 7 5 6 6 4 9 10 8 8 6 7 10 14 14 6 3 3 3 5 6 6 9 10 4 13 17 13 6 3 7 10 8 7 7 6 6 6 7 8 8 6 2 5 3 5 3 1 12 19 18 18 17 15 16 19 18 14 12 14 16 20
30 31 33 33 34 34 30 26 19 11 15 20 8 4 9 11 9 3 6 9 5 3 3 2 4 7 8 7 3 6 7 5 8 9 7 9 8 8 9 12 16 11 4 5 4 3 7 9 6 6 3 13 14 9 4 4 4 7 6 7 8 6 7 8 8 6 3 7 5 5 5 6 5 2 7 10 14 18 16 16 15 18 22 19 16 16 18 21
31 33 35 35 36 36 33 29 23 16 21 20 6 6 12 11 7 4 3 4 5 5 6 3 5 6 8 7 5 8 6 2 7 7 6 10 10 11 9 8 16 17 10 7 3 3 5 5 5 5 1 6 3 2 4 3 2 5 6 7 4 1 4 7 9 3 2 7 8 5 6 8 8 7 8 11 13 16 15 14 14 17 21 20 19 21 22 24
34 36 37 39 39 37 34 31 26 22 25 18 7 9 10 10 12 8 2 1 2 5 7 6 7 8 8 7 7 10 7 3 7 6 4 7 8 12 12 7 13 19 18 13 6 4 6 4 3 4 2 2 3 4 0 2 1 4 5 4 2 2 1 4 7 4 4 10 9 8 12 11 9 7 8 14 15 17 16 14 13 14 15 15 20 26 27 27
37 38 39 43 44 40 35 31 28 27 23 11 8 12 9 8 12 9 2 3 1 4 8 9 7 8 9 9 7 10 11 6 7 6 5 6 6 10 13 9 11 18 22 20 8 3 3 4 2 2 1 3 3 2 3 2 2 2 2 2 0 2 4 6 6 5 7 9 9 14 19 14 10 7 7 14 17 17 16 14 12 11 11 11 18 26 28 29
35 31 30 39 44 41 37 33 31 27 16 7 10 11 7 9 11 7 3 4 3 5 9 10 8 7 9 10 7 7 12 9 7 6 6 6 5 8 13 9 10 16 21 19 10 4 3 4 3 1 1 2 3 4 6 5 4 1 3 3 1 2 3 5 5 5 7 8 9 15 18 12 10 7 8 15 17 16 15 13 11 11 12 13 18 26 29 30
30 19 17 32 35 32 36 33 29 21 9 6 10 9 7 8 8 7 7 7 5 5 8 10 10 10 9 9 7 5 8 8 8 7 6 7 7 6 11 10 7 10 15 15 10 5 2 4 5 1 1 3 5 7 9 9 8 6 5 6 6 3 1 2 4 5 6 7 7 9 13 12 6 2 8 13 13 13 13 11 8 8 12 15 21 29 30 31
24 11 12 26 24 23 32 28 17 11 6 5 8 9 9 8 8 8 8 8 6 5 4 6 9 11 10 10 9 6 6 6 8 9 6 8 10 7 9 13 9 6 6 5 7 7 3 5 7 3 3 6 7 7 10 10 8 8 9 10 10 9 5 3 7 6 4 5 7 7 12 15 4 5 5 7 6 7 9 9 7 8 12 16 21 27 27 28
16 9 10 18 18 22 30 19 7 8 7 8 9 6 6 8 10 11 8 7 7 4 2 3 7 10 9 10 12 9 6 6 7 8 7 8 12 8 7 13 12 11 9 3 7 9 3 2 7 7 6 6 4 2 2 2 1 3 6 8 9 10 9 7 8 5 3 4 8 9 12 16 4 8 6 5 6 4 6 8 7 9 14 19 21 24 25 26
12 10 10 14 17 25 26 9 4 9 6 7 9 8 9 7 5 6 7 8 8 4 3 4 6 10 10 9 11 9 6 7 9 10 9 8 9 8 4 8 9 9 7 3 3 5 2 1 6 8 5 4 2 1 1 1 1 4 6 7 9 10 11 9 6 3 3 6 8 9 11 14 5 6 3 2 4 6 7 9 10 10 14 19 22 24 25 25
13 13 11 14 21 29 23 7 5 11 8 7 8 11 14 9 6 9 8 8 9 4 4 7 7 9 9 7 6 7 6 7 8 10 10 8 6 5 5 5 8 7 7 4 2 6 5 4 7 6 6 6 5 5 4 3 5 7 8 10 11 12 11 7 3 1 4 12 17 12 9 12 8 2 5 8 6 7 9 13 14 13 13 18 23 25 25 25
10 10 11 22 35 36 22 11 9 9 9 10 11 13 13 9 13 22 17 12 13 8 4 6 4 3 4 4 5 8 8 7 7 8 8 7 6 5 7 6 5 8 8 8 5 7 7 4 7 9 9 9 10 11 6 3 5 6 9 13 14 14 15 9 5 5 10 18 21 14 11 15 15 13 15 14 7 6 10 12 13 15 18 20 22 26 27 26
7 5 6 15 33 36 26 20 16 8 8 12 10 10 14 11 12 23 23 14 15 17 11 5 2 1 3 6 8 11 12 12 9 7 7 8 7 2 5 7 6 9 13 16 12 4 2 3 9 13 14 12 13 16 10 3 5 7 10 15 15 16 18 13 8 10 13 14 14 15 18 21 20 21 25 22 12 10 13 11 8 13 21 25 25 26 28 28
8 4 5 8 16 20 20 19 15 8 10 13 7 6 15 17 11 15 18 14 16 19 12 7 8 8 9 11 10 10 13 14 12 11 11 12 11 10 9 7 6 11 13 11 9 4 1 5 11 16 20 19 19 21 20 17 14 12 13 16 16 17 18 16 16 18 16 12 10 16 24 24 19 19 25 26 21 19 18 16 13 13 21 27 27 27 29 31
11 5 8 11 10 8 11 17 17 12 13 14 9 8 15 19 16 14 14 12 14 15 10 7 13 17 17 16 13 10 11 12 10 11 12 12 12 12 13 12 11 12 8 3 3 2 2 7 11 15 20 21 22 23 24 25 23 18 16 16 16 17 19 22 24 22 17 14 15 20 27 26 18 17 22 24 24 22 19 21 26 26 25 22 20 22 27 30
16 14 14 15 11 7 13 24 24 18 16 15 11 12 16 19 21 18 13 9 9 14 14 11 14 19 22 21 17 12 10 10 11 12 12 13 14 11 8 10 12 10 7 4 3 3 3 6 10 14 17 18 20 23 25 26 26 24 21 17 13 15 22 27 23 16 17 23 24 25 28 25 16 16 22 27 31 29 25 29 30 25 25 24 19 21 28 33
13 12 13 14 12 9 13 18 15 11 14 15 11 12 15 19 23 20 15 13 10 10 16 18 19 20 21 21 20 17 16 18 19 19 15 13 12 10 7 9 8 5 6 6 5 5 6 9 10 11 12 14 19 23 26 28 27 26 23 18 16 19 24 25 18 12 17 24 24 22 24 20 15 19 25 28 32 30 26 27 23 23 33 36 29 29 35 41
17 15 14 13 9 7 10 10 8 8 10 12 11 12 14 20 24 20 18 22 21 14 15 21 23 20 18 20 20 19 21 24 26 27 25 19 14 10 7 7 8 5 4 5 5 5 7 9 8 8 10 13 17 22 26 26 25 23 20 19 23 26 25 22 17 14 16 19 19 18 17 14 16 22 23 22 25 25 22 22 23 31 42 39 29 30 36 42
23 22 19 14 6 4 6 6 7 8 7 8 11 13 15 19 22 20 16 18 25 27 24 21 19 15 15 19 22 26 32 36 38 40 38 31 23 16 10 9 11 9 6 5 5 5 6 7 6 8 10 12 16 21 21 19 16 14 16 23 30 30 26 24 23 22 21 17 14 13 12 14 18 21 20 22 25 22 19 20 24 32 38 33 26 29 36 40
Wind_Direction
357 5 7 8 7 9 9 8 9 8 9 7 5 3 2 4 4 6 6 5 5 2 355 343 311 277 266 264 261 259 260 260 263 262 255 243 236 235 227 227 219 200 205 267 261 234 237 233 230 236 234 233 231 225 236 233 203 206 227 246 254 263 273 323 280 284 314 305 181 168 195 222 221 180 212 231 228 238 240 235 229 229 233 234 240 237 235 244
331 341 349 356 353 356 359 359 0 0 2 2 3 2 2 2 0 360 357 356 355 353 350 345 333 300 276 265 264 267 269 270 270 266 255 240 232 228 222 227 220 207 228 267 323 217 231 237 234 234 227 228 230 225 233 225 200 223 251 254 257 275 310 354 295 282 286 292 283 198 208 227 236 181 191 221 230 227 232 237 226 230 234 235 242 236 234 245
313 323 332 336 338 344 346 349 351 352 353 355 358 357 358 359 360 358 355 353 347 346 343 339 337 323 295 264 263 266 271 280 276 267 255 239 232 227 224 229 223 221 234 242 299 242 237 252 244 229 230 235 221 211 224 214 218 233 243 257 265 301 312 280 265 264 274 280 274 256 217 222 241 193 173 219 242 229 227 233 221 225 230 229 238 238 234 241
301 310 318 323 327 332 335 339 340 343 345 346 350 351 353 353 355 356 354 351 345 343 337 335 333 325 316 282 266 261 272 285 272 261 255 240 232 228 226 231 227 229 236 249 268 260 276 290 255 223 231 243 213 206 223 207 215 216 218 258 304 10 306 279 242 258 266 264 264 260 228 231 236 203 196 225 247 242 236 236 227 227 234 223 227 240 237 237
297 303 309 312 316 321 325 329 330 335 338 340 341 343 347 347 348 350 351 349 345 342 337 333 328 321 316 298 275 257 261 281 266 258 252 234 230 229 229 234 232 234 237 248 262 277 292 299 250 216 230 244 212 214 227 202 208 245 239 256 290 304 284 299 108 257 243 243 258 246 241 240 220 211 221 227 237 247 249 246 235 232 244 230 223 240 241 236
296 299 303 306 309 313 314 318 323 327 331 335 336 337 340 343 343 343 346 346 343 342 339 334 330 322 311 300 283 246 235 259 305 294 257 227 229 232 235 239 236 239 241 245 262 278 277 249 228 221 235 247 225 225 215 188 208 250 252 252 266 263 263 289 355 255 245 239 244 239 248 238 217 234 232 229 236 244 254 262 250 233 241 240 230 238 242 240
293 296 299 302 304 306 309 313 315 319 325 328 331 332 334 338 340 339 341 341 340 341 339 336 332 328 313 296 283 245 231 254 271 276 267 239 235 237 240 244 242 243 242 247 260 262 256 243 241 242 250 255 242 234 195 182 211 237 267 264 259 250 251 265 262 252 247 238 243 247 259 239 235 253 249 237 239 243 251 259 258 249 244 243 239 240 246 247
290 293 295 298 300 303 305 307 310 313 315 319 322 324 327 332 333 334 336 335 337 336 336 334 330 328 316 292 283 259 238 255 270 268 260 247 243 244 244 246 246 247 245 248 246 245 256 257 256 261 260 261 263 242 200 218 221 223 258 278 266 251 254 255 249 248 242 237 244 247 251 248 247 264 269 250 248 248 247 254 258 257 253 247 245 246 248 247
287 288 290 293 296 298 300 302 305 306 307 310 313 314 316 320 322 325 326 326 328 330 331 329 324 319 309 291 274 265 251 259 274 268 257 250 246 247 246 246 247 248 249 251 245 248 262 266 256 262 281 287 289 266 206 235 235 224 263 291 273 262 263 251 246 249 240 233 227 231 246 251 249 264 272 257 255 255 247 245 251 256 254 247 245 246 248 247
282 283 286 288 290 293 295 297 299 300 303 302 304 306 308 309 312 314 315 317 319 321 323 321 321 314 300 285 250 259 267 267 275 270 260 254 249 248 247 243 245 248 251 255 255 255 263 271 266 273 288 284 265 254 206 239 282 305 290 291 274 266 264 247 249 248 237 239 221 224 251 254 235 233 263 257 251 248 236 232 235 245 251 245 243 242 245 247
281 281 282 283 286 288 289 292 293 295 296 297 299 301 302 303 305 307 308 311 311 314 318 317 319 309 291 269 237 254 278 278 278 272 263 258 253 251 248 242 243 247 250 258 260 258 259 271 278 280 282 271 256 244 229 251 280 308 304 293 275 263 256 237 241 238 224 237 218 223 259 254 221 212 249 248 240 236 214 215 223 237 247 242 240 240 241 246
280 281 281 282 283 284 285 287 287 289 290 291 293 294 297 299 300 303 303 306 308 311 314 315 317 307 289 259 245 260 280 280 278 273 263 259 255 252 250 244 245 247 248 254 261 263 265 274 277 271 273 286 289 264 246 258 269 292 293 287 279 269 258 237 230 221 209 208 183 198 269 249 215 223 249 247 237 238 216 212 223 235 247 241 237 237 239 244
282 281 282 282 283 284 284 284 284 285 286 286 288 289 292 293 296 298 299 302 305 308 312 313 312 304 283 257 258 272 282 278 275 271 263 258 254 251 251 249 249 249 249 248 255 263 264 271 271 262 267 276 280 276 288 271 251 281 265 262 280 278 266 229 205 184 192 199 161 175 273 259 215 222 243 243 225 229 218 220 227 233 244 242 237 235 239 242
282 282 283 283 283 284 284 284 285 284 284 284 285 286 287 289 291 294 296 298 300 305 308 309 307 296 266 262 274 278 278 277 274 267 261 256 253 253 252 252 251 249 248 247 252 258 258 265 265 258 256 253 264 278 280 251 215 256 256 236 255 268 267 178 168 165 180 195 167 181 258 272 262 238 229 216 213 221 219 225 229 232 239 243 242 238 239 242
280 281 282 282 283 283 284 284 285 285 285 284 284 286 287 286 288 290 292 293 296 300 301 302 298 284 264 270 278 279 276 274 270 266 261 253 251 254 251 250 250 246 245 245 247 251 253 257 253 252 245 227 248 267 269 257 231 234 245 255 244 245 255 187 176 186 193 175 173 190 241 260 279 286 178 190 210 218 228 237 234 236 238 240 243 241 241 243
275 277 278 280 281 282 283 284 284 285 284 284 285 287 288 289 290 291 291 293 294 295 295 293 284 270 265 272 272 275 275 268 267 266 256 248 243 244 247 246 243 240 239 240 242 246 248 246 243 247 238 225 239 247 266 272 258 230 226 263 263 258 270 233 176 197 208 149 177 206 251 263 268 308 150 184 210 215 232 248 246 249 248 241 241 242 244 243
273 274 275 276 278 280 281 283 283 284 284 285 286 287 289 291 290 291 291 292 292 290 286 278 273 264 256 263 268 269 270 267 265 260 249 244 238 234 238 237 234 235 233 236 240 235 232 226 235 247 232 232 240 238 258 265 265 253 229 250 263 266 274 262 206 196 199 187 205 215 236 255 258 262 242 218 211 213 236 255 257 258 256 248 240 241 245 244
279 278 278 278 278 279 279 280 281 282 283 284 286 288 289 290 291 291 290 288 286 283 278 254 229 254 252 249 253 260 269 272 264 253 246 237 233 228 223 226 226 221 218 231 229 212 214 215 223 260 240 229 225 217 229 240 257 280 273 267 272 272 270 268 271 161 176 200 230 226 233 251 256 262 266 256 234 222 237 255 261 261 258 255 247 241 242 243
285 284 285 285 284 283 282 282 280 280 281 283 285 286 288 291 291 289 285 278 261 247 268 221 193 223 268 249 259 271 276 278 265 252 245 236 233 225 218 219 212 206 210 216 202 194 198 207 218 250 245 228 218 214 223 240 259 281 285 281 280 281 272 271 277 150 179 209 228 236 245 257 261 259 262 265 260 250 250 255 260 260 259 256 251 246 239 240
285 286 289 289 288 289 289 287 285 284 284 284 285 287 290 290 288 285 270 249 240 243 258 235 214 242 263 268 276 281 279 277 269 254 249 243 228 216 213 206 198 210 224 224 199 181 192 220 231 238 242 241 237 231 235 250 268 279 280 275 272 274 271 272 274 149 182 231 242 248 254 260 265 265 263 265 267 266 265 262 258 260 260 255 251 249 241 238
283 285 288 288 288 291 292 291 290 289 290 288 289 292 287 269 263 276 268 258 259 260 258 251 243 247 253 258 264 271 274 277 269 255 252 239 209 202 198 191 201 221 221 221 201 148 187 224 235 240 250 259 263 257 250 257 268 269 267 271 271 267 267 273 272 141 166 224 256 261 264 264 264 265 265 264 263 259 258 261 262 264 265 261 255 252 247 235
285 286 288 287 288 292 293 292 292 291 293 292 291 288 273 264 262 265 274 280 272 261 256 255 251 249 253 254 257 263 264 262 259 249 246 226 198 203 192 186 215 228 198 194 186 183 209 231 242 246 254 265 273 268 260 260 261 263 259 261 265 263 270 273 204 137 169 216 266 274 273 273 270 266 263 258 256 251 247 251 261 266 267 265 259 257 249 225
289 290 290 289 290 295 295 294 294 293 293 291 290 284 274 270 266 264 267 276 273 261 256 255 252 251 253 253 254 255 246 243 246 242 241 221 193 205 206 198 227 232 195 195 210 216 220 234 246 249 234 231 253 237 238 254 249 243 241 246 255 254 266 268 182 150 198 218 271 289 280 272 268 261 252 246 246 249 247 246 254 261 262 261 260 261 244 217
296 296 295 293 295 299 299 298 297 295 292 290 287 279 273 270 262 267 271 267 268 259 256 255 249 248 248 248 251 246 236 238 237 235 235 216 189 199 215 219 234 237 222 219 222 227 239 242 196 184 190 226 249 227 213 240 243 232 226 233 248 250 255 263 286 344 254 234 251 293 282 264 254 250 244 236 235 242 248 245 247 252 256 259 261 264 244 215
303 302 302 302 303 307 307 304 301 296 294 290 286 276 269 264 247 266 287 269 253 235 251 252 242 245 244 241 242 235 232 240 234 231 226 207 190 184 209 217 225 240 236 231 232 238 248 238 138 184 215 211 236 241 225 229 249 243 224 228 244 256 263 265 296 354 296 265 163 330 299 271 227 235 237 192 192 219 230 238 240 244 249 254 259 260 241 220
304 305 308 307 310 316 316 313 306 302 300 289 284 271 254 235 219 290 315 277 252 199 209 220 216 230 232 232 226 211 230 250 234 232 223 206 198 190 204 208 209 246 247 238 242 248 247 203 141 226 233 213 231 250 238 222 243 251 232 237 245 255 263 266 281 301 281 280 176 63 313 286 228 214 220 180 192 209 198 227 239 236 238 242 251 255 240 229
300 301 304 307 313 321 324 318 305 304 298 284 281 257 233 203 172 350 340 279 256 166 146 172 183 190 195 207 192 177 226 238 210 217 206 202 199 196 222 209 196 236 222 227 251 230 205 189 182 218 223 227 231 248 238 213 228 250 14 347 251 251 258 257 265 253 260 287 272 168 238 277 271 210 204 204 218 228 223 242 249 238 234 236 245 250 241 238
296 298 300 302 308 316 320 316 310 306 283 276 274 225 197 163 143 87 281 275 256 125 136 169 174 191 192 178 176 180 313 130 159 197 190 193 191 189 228 227 230 237 178 192 236 216 159 192 198 192 202 227 225 265 237 198 218 260 52 34 70 278 260 234 246 253 268 287 270 200 184 258 280 197 188 204 210 224 231 240 249 245 240 239 238 240 240 240
292 293 294 297 303 307 310 310 311 306 282 271 237 188 162 150 141 64 244 257 203 118 140 162 171 191 170 157 185 206 309 59 215 180 176 189 190 184 241 237 249 261 198 211 242 276 66 151 206 190 203 228 197 31 10 205 217 149 111 83 79 88 106 178 243 266 278 269 254 217 175 228 281 192 169 195 201 214 225 233 241 240 239 240 231 230 236 236
287 289 289 292 296 297 301 305 305 303 283 241 194 163 146 151 163 255 233 242 326 100 121 153 173 169 158 157 200 217 227 227 99 134 159 190 195 200 282 260 250 269 231 235 259 268 127 96 36 217 218 216 102 68 21 16 122 134 145 121 110 187 165 211 241 264 278 262 243 213 185 206 271 192 152 182 195 200 204 220 235 235 232 224 216 225 232 230
282 283 283 285 287 289 292 295 297 298 257 208 175 154 153 165 207 242 232 276 338 181 130 170 178 148 168 183 199 194 202 221 148 152 178 176 188 205 221 200 199 238 248 246 252 246 207 175 195 208 185 130 110 103 56 53 134 162 175 188 215 229 197 218 219 171 253 262 226 191 187 199 236 214 153 182 195 192 186 217 245 246 234 219 213 227 230 222
278 278 278 279 280 279 278 280 287 286 225 191 169 162 175 228 231 237 223 65 4 192 147 176 180 170 198 210 216 178 183 209 180 182 202 182 187 200 200 199 175 191 242 227 224 230 219 211 194 160 151 175 177 158 113 116 186 202 194 193 232 246 227 232 219 190 237 254 151 162 187 207 234 241 219 213 198 190 193 227 251 252 242 231 219 226 228 218
273 273 272 272 274 274 273 273 272 262 214 182 172 177 199 247 238 227 192 163 217 171 114 132 171 180 201 211 219 176 179 211 177 189 207 189 208 214 210 217 203 224 256 211 212 214 221 229 178 167 185 190 189 196 205 190 183 194 191 185 206 231 247 249 239 237 247 248 148 135 182 233 258 246 222 225 213 202 215 228 236 240 239 236 219 220 227 216
267 267 266 267 270 270 268 264 256 248 207 180 175 194 205 235 241 187 183 205 204 122 96 85 159 185 208 218 203 173 206 222 167 182 202 187 212 224 216 220 216 235 267 215 252 215 240 274 178 171 170 172 187 211 216 133 172 196 195 196 214 226 241 250 251 253 266 285 207 144 178 235 275 181 197 217 216 206 221 226 223 230 232 230 218 216 224 214
266 265 262 261 259 258 259 254 247 241 198 177 171 217 208 234 246 207 219 215 185 158 134 95 164 188 223 228 199 197 225 224 169 177 203 198 211 216 208 209 203 202 193 213 243 182 240 266 167 131 108 157 182 216 180 113 183 197 183 210 232 235 230 247 270 268 307 316 271 189 218 245 262 249 174 202 207 197 215 223 213 222 226 225 222 222 226 218
268 266 260 255 250 250 252 245 241 229 195 176 160 217 219 236 233 219 244 205 192 170 142 174 200 201 231 218 191 207 216 216 180 184 215 216 229 229 214 199 192 190 186 192 211 178 229 267 131 104 48 146 164 273 174 180 222 167 176 207 224 307 237 244 269 281 100 283 267 212 242 259 263 250 177 172 191 189 205 215 207 216 218 217 221 225 228 223
269 261 254 252 250 250 247 238 233 217 194 182 188 215 226 241 237 244 260 134 230 175 162 217 211 196 225 226 206 194 176 186 187 184 213 207 231 226 208 208 193 190 198 200 213 231 229 257 171 165 209 125 20 342 236 303 326 145 186 211 102 36 301 243 259 266 238 263 269 255 261 264 269 261 171 168 189 193 202 211 210 212 205 207 222 229 232 231
269 257 249 252 254 250 244 234 222 203 186 183 228 235 241 245 243 249 193 108 345 185 198 233 213 190 220 240 233 177 163 188 177 175 219 206 221 200 182 203 197 192 207 209 219 264 213 242 233 166 216 117 89 268 207 207 235 188 262 296 84 218 211 204 225 243 248 257 267 272 275 266 253 254 179 178 194 198 204 210 209 207 197 202 221 229 235 236
267 253 244 252 252 247 242 228 207 190 175 180 218 231 244 245 249 254 202 208 241 218 227 243 235 227 230 243 256 171 169 191 171 171 214 208 221 183 166 188 198 199 209 203 209 243 192 224 241 96 345 127 138 222 204 174 181 225 295 268 225 256 231 212 214 225 240 249 263 277 283 272 249 240 190 182 194 202 206 205 202 206 207 205 217 229 235 238
259 246 244 251 248 241 231 212 188 176 174 204 217 230 248 250 252 241 221 227 234 229 241 249 245 244 241 241 256 218 196 208 195 200 211 197 220 207 170 177 186 203 209 199 209 233 163 220 234 100 346 221 196 200 193 187 182 184 223 218 198 204 266 293 257 236 237 248 255 267 275 274 269 192 176 176 188 202 199 196 196 201 206 206 218 229 235 239
255 243 251 246 240 226 207 189 169 174 193 221 232 247 253 259 268 253 232 229 240 253 260 261 253 252 257 250 247 233 212 219 215 220 223 206 227 236 173 180 184 161 168 195 218 216 183 213 223 201 202 221 215 194 195 203 194 184 196 201 199 191 180 231 237 225 222 240 245 247 262 269 271 105 145 156 160 192 189 185 186 190 203 209 220 231 236 241
253 241 255 240 226 202 188 175 170 192 194 217 227 245 252 255 268 264 245 224 233 258 303 291 261 254 260 258 257 250 223 227 228 225 232 223 229 237 178 183 185 153 144 188 216 208 188 177 222 230 223 224 222 181 210 243 254 257 228 208 206 192 184 208 218 211 195 218 244 245 253 265 257 104 107 117 127 184 196 188 195 196 200 209 222 233 239 241
246 246 253 238 221 199 186 175 204 197 207 243 243 258 253 244 265 264 247 226 220 221 224 243 248 245 249 254 259 260 247 244 238 233 249 252 244 260 232 188 176 157 173 218 210 193 114 106 226 242 256 269 275 113 44 36 156 257 251 222 217 209 205 217 222 228 206 198 228 237 242 261 264 107 125 228 176 196 208 208 224 222 205 212 226 232 234 237
256 255 235 218 211 198 190 185 200 206 223 243 248 251 246 248 253 249 245 224 213 201 219 240 244 240 245 256 257 254 250 249 245 249 263 269 265 300 305 218 190 187 212 231 173 173 176 199 214 232 254 256 253 231 216 192 189 220 232 219 222 222 218 226 237 255 242 228 234 243 247 255 257 175 236 245 202 194 217 217 224 228 215 217 226 227 227 232
261 248 213 200 197 196 202 214 211 212 213 220 234 234 235 243 236 236 240 230 222 219 220 240 244 230 240 257 259 250 247 248 254 261 270 280 288 347 357 313 249 228 254 307 308 197 193 211 196 212 235 225 228 237 225 164 177 208 230 222 220 219 213 220 230 221 237 237 236 243 251 256 265 274 271 261 223 197 221 214 209 220 224 225 226 225 226 231
250 225 198 194 196 204 222 228 223 221 202 213 227 224 230 238 232 235 238 236 231 227 227 233 216 203 233 234 249 253 247 243 245 254 262 266 267 319 6 338 303 274 293 323 324 265 216 255 210 219 236 230 234 246 255 257 186 186 214 217 213 213 211 214 225 225 234 240 238 240 247 254 261 268 273 273 264 253 253 245 216 211 221 225 227 226 227 233
251 217 182 184 202 219 236 233 228 224 201 207 204 194 223 231 233 234 227 223 224 220 223 232 216 221 227 222 235 247 242 241 241 245 250 252 254 261 273 286 292 281 288 312 317 313 337 258 235 238 246 247 251 255 258 261 246 223 222 218 212 211 209 211 223 228 231 241 245 239 243 250 252 256 267 274 273 267 264 265 262 246 236 230 226 228 232 237
245 255 221 208 204 211 227 226 227 227 213 209 205 204 222 226 228 226 214 215 220 206 203 228 220 222 226 222 226 235 235 241 241 236 240 244 246 252 258 256 248 247 248 275 318 318 266 254 249 253 256 256 260 262 260 261 259 250 243 232 219 212 209 215 225 227 227 237 245 243 245 251 251 251 260 267 268 265 266 274 276 273 265 245 224 230 241 244
239 259 265 252 236 217 220 218 217 220 217 212 213 218 224 228 229 226 211 209 219 203 203 221 218 216 222 223 226 231 226 231 239 233 226 228 233 236 245 248 240 223 198 202 221 179 213 255 246 250 261 261 260 263 262 263 265 263 257 249 238 228 224 227 230 226 224 235 241 245 251 256 258 256 257 259 265 270 278 282 277 270 265 256 246 257 267 267
241 258 286 286 273 275 266 240 225 226 222 218 223 219 221 230 232 231 219 210 213 195 199 221 229 220 219 221 223 229 226 226 237 240 227 218 219 219 225 233 228 188 162 197 216 183 201 233 235 244 261 258 253 257 257 257 261 263 263 264 263 257 249 242 237 222 225 238 242 245 253 260 261 259 257 259 267 274 279 277 270 265 267 268 270 277 278 275
264 277 304 313 291 269 280 263 240 244 230 222 228 222 223 230 229 233 232 222 221 210 194 212 226 226 228 229 227 231 229 227 235 240 238 235 229 220 221 215 204 188 166 190 200 181 202 229 235 239 249 246 242 245 248 251 256 260 266 268 260 256 255 252 246 235 232 240 246 248 252 253 252 255 260 267 270 270 269 268 267 269 271 274 278 278 274 272
275 282 291 307 306 232 253 257 237 247 243 227 231 229 232 237 234 238 243 230 228 232 226 219 221 226 232 231 230 233 232 231 236 240 245 252 255 250 240 209 192 184 175 194 207 191 199 221 224 222 237 244 239 241 246 251 254 252 245 243 243 246 252 257 258 253 244 237 239 243 238 237 247 257 266 270 267 262 259 259 262 268 271 275 276 271 269 271